Flag for U.S.A. Weather past 2 weeks in Freehold, New Jersey, U.S.A.

Now
54 °F

Clear.


Feels Like: 54 °F
Forecast: 51 / 71 °F
Wind: No wind

Location: Belmar-Farmdale

Current Time: Sep 24, 2014 at 12:26:46 AM

Latest Report: Sep 23, 2014 at 11:55 PM


Visibility: 10 mi

Pressure: 30.41 "Hg

Humidity: 72%

Dew point: 45 °F

Location of FreeholdLocation

Historic Weather in Freehold — Graph

°F

Freehold temperature yesterday

Maximum temperature yesterday: 70 °F (at 3:35 PM)
Minimum temperature yesterday: 45 °F (at 5:15 AM)
Average temperature yesterday: 57 °F

Past Weeks' High & Low Weather Summary

 TemperatureHumidityPressure
High84 °F (Sep 11, 4:35 PM)88% (Sep 11, 5:15 AM)30.40 "Hg (Sep 11, 5:15 AM)
Low45 °F (Sep 23, 5:15 AM)38% (Sep 18, 12:55 PM)29.63 "Hg (Sep 21, 6:15 PM)
Average64 °F68%30.09 "Hg
* Reported Sep 8 11:15 PM — Sep 23 11:35 PM, Freehold, Weather by CustomWeather, © 2014

Note: Actual official high and low records may vary slightly from our data, if they occured in-between our weather recording intervals... More about our weather records

Advertising

Freehold weather history for previous 24 hours

 ConditionsComfort  
Time TempWeatherWind HumidityBarometerVisibility
11:35 PM
Sep 23
55 °FClear.No wind72%30.40 "Hg10 mi
11:15 PM55 °FClear.No wind67%30.40 "Hg10 mi
10:55 PM55 °FClear.No wind67%30.40 "Hg10 mi
10:35 PM57 °FClear.No wind63%30.40 "Hg10 mi
10:15 PM57 °FClear.3 mph63%30.39 "Hg10 mi
9:55 PM57 °FClear.No wind67%30.39 "Hg10 mi
9:35 PM57 °FClear.3 mph67%30.39 "Hg10 mi
9:15 PM57 °FClear.3 mph67%30.39 "Hg10 mi
8:55 PM57 °FClear.5 mph67%30.38 "Hg10 mi
8:35 PM57 °FClear.No wind67%30.37 "Hg10 mi
8:15 PM57 °FClear.5 mph67%30.37 "Hg10 mi
7:55 PM59 °FClear.6 mph63%30.36 "Hg10 mi
7:35 PM61 °FSunny.5 mph63%30.35 "Hg10 mi
7:15 PM61 °FSunny.3 mph59%30.34 "Hg10 mi
6:55 PM63 °FSunny.3 mph56%30.33 "Hg10 mi
6:35 PM63 °FSunny.6 mph59%30.33 "Hg10 mi
6:15 PM64 °FSunny.7 mph56%30.33 "Hg10 mi
5:55 PM64 °FSunny.7 mph56%30.32 "Hg10 mi
5:35 PM66 °FSunny.7 mph56%30.32 "Hg10 mi
5:15 PM70 °FSunny.No wind43%30.32 "Hg10 mi
4:15 PM70 °FSunny.3 mph40%30.32 "Hg10 mi
3:55 PM70 °FSunny.No wind43%30.32 "Hg10 mi
3:35 PM70 °FSunny.3 mph43%30.32 "Hg10 mi
3:15 PM68 °FSunny.3 mph46%30.32 "Hg10 mi
2:55 PM66 °FSunny.No wind49%30.32 "Hg10 mi
2:35 PM66 °FSunny.3 mph49%30.33 "Hg10 mi
2:15 PM66 °FSunny.3 mph49%30.33 "Hg10 mi
1:55 PM66 °FSunny.No wind49%30.34 "Hg10 mi
1:35 PM66 °FSunny.No wind49%30.33 "Hg10 mi
1:15 PM66 °FSunny.6 mph49%30.34 "Hg10 mi
12:55 PM64 °FSunny.6 mph49%30.35 "Hg10 mi
12:35 PM64 °FSunny.No wind49%30.35 "Hg10 mi
12:15 PM63 °FSunny.No wind49%30.35 "Hg10 mi
11:55 AM63 °FSunny.5 mph52%30.34 "Hg10 mi
11:35 AM61 °FSunny.7 mph55%30.33 "Hg10 mi
11:15 AM61 °FSunny.3 mph55%30.34 "Hg10 mi
10:55 AM63 °FSunny.6 mph52%30.33 "Hg10 mi
10:35 AM61 °FSunny.6 mph55%30.33 "Hg10 mi
10:15 AM59 °FSunny.6 mph59%30.32 "Hg10 mi
9:55 AM57 °FSunny.5 mph59%30.32 "Hg10 mi
9:35 AM57 °FSunny.5 mph59%30.32 "Hg10 mi
9:15 AM55 °FSunny.9 mph63%30.32 "Hg10 mi
8:55 AM54 °FSunny.8 mph63%30.31 "Hg10 mi
8:35 AM52 °FSunny.7 mph62%30.30 "Hg10 mi
8:15 AM48 °FSunny.6 mph71%30.30 "Hg10 mi
7:55 AM46 °FSunny.5 mph71%30.30 "Hg10 mi
7:35 AM46 °FClear.5 mph71%30.29 "Hg10 mi
7:15 AM45 °FClear.7 mph76%30.28 "Hg10 mi
6:55 AM45 °FClear.5 mph76%30.28 "Hg10 mi
6:35 AM45 °FClear.6 mph76%30.27 "Hg10 mi
6:15 AM45 °FClear.No wind76%30.26 "Hg10 mi
5:55 AM45 °FClear.5 mph76%30.25 "Hg10 mi
5:35 AM45 °FClear.6 mph76%30.24 "Hg10 mi
5:15 AM45 °FClear.5 mph76%30.24 "Hg10 mi
4:55 AM46 °FClear.6 mph71%30.23 "Hg10 mi
4:35 AM46 °FClear.5 mph71%30.22 "Hg10 mi
4:15 AM46 °FClear.7 mph71%30.21 "Hg10 mi
3:55 AM46 °FClear.5 mph71%30.21 "Hg10 mi
3:35 AM48 °FClear.5 mph66%30.21 "Hg10 mi
3:15 AM48 °FClear.5 mph66%30.21 "Hg10 mi
2:55 AM48 °FClear.3 mph66%30.20 "Hg10 mi
2:35 AM48 °FClear.6 mph66%30.20 "Hg10 mi
1:55 AM50 °FClear.5 mph62%30.20 "Hg10 mi
1:35 AM52 °FClear.6 mph58%30.20 "Hg10 mi
1:15 AM52 °FClear.8 mph58%30.20 "Hg10 mi
12:55 AM52 °FClear.7 mph58%30.19 "Hg10 mi
12:35 AM54 °FClear.8 mph54%30.19 "Hg10 mi
12:15 AM54 °FClear.9 mph54%30.19 "Hg10 mi
Weather by CustomWeather, © 2014

See weather overviewHow to use our weather pages